Погода в Киркконумми

Финляндия     60°06′58″N   24°27′52″E
темп.,
°C
ветер,
м/с
пор.,
м/с
влажн.,
%
обл.,
%
осадки,
мм/ч
давл.,
гПа
погр.,
м
13 мая, чт
чт1300:00+12юв7118119 0.0 101593
03:00+10юв44890 0.0 101537
06:00+9в22900 0.0 101415
09:00+10всв68841 0.0 101397
12:00+9всв7109060 0.0 1012163
15:00+10в9138743 0.0 1011217
18:00+9в7108626 0.0 1011142
21:00+8в57825 0.0 101063
14 мая, пт
пт1400:00+8в458482 0.0 101038
03:00+9всв3380100 0.0 100919
06:00+8вюв3486100 0.0 100840
09:00+8всв5696100 0.3 1008101
12:00+8всв6890100 0.0 1008213
15:00+8всв81384100 0.0 1007327
18:00+7в71091100 0.1 1007164
21:00+7в6998100 0.3 1006131
15 мая, сб
сб1500:00+7в5799100 0.1 100594
03:00+8в5798100 0.3 100573
06:00+8в69100100 1.9 1003102
09:00+7всв5699100 9.7 1003102
12:00+7всв4499100 3.9 100268
15:00+8юз4499100 4.3 100372
18:00+7зюз579864 0.1 1003140
21:00+6зюз4798100 0.1 1004155
16 мая, вс
вс1600:00+7юз5109594 0.0 1005221
03:00+7ююз599693 0.1 1005178
06:00+7ююз599573 0.0 1006182
09:00+7ююз599597 0.0 1007166
12:00+8юз478936 0.0 1009175
15:00+9з468615 0.0 1009171
18:00+8ююв338549 0.0 101087
21:00+9в448224 0.0 101037
17 мая, пн
пн1700:00+8в45898 0.0 100942
03:00+8вюв569495 0.0 100960
06:00+9вюв699399 0.0 100987
09:00+9вюв61091100 0.0 1009112
12:00+9в6993100 0.6 100892
15:00+9в6989100 1.0 100792
18:00+9в6796100 2.6 100787
21:00+9юв33100100 6.3 100726